CAPE
2986 2903 3039 2941 2414 2186 2008 674 1049 1559 1327 1022 782 584 576 282 120 10 0 0 0 0 0 0 0 0 0 0 0 0 0 0 0 0 0 0 0 2 0 0 0 0 0
2473 2670 3030 2644 2507 2077 1975 522 1254 1525 1510 1047 942 629 286 65 0 0 0 0 0 0 0 0 0 0 0 0 0 0 0 0 0 0 0 0 0 0 0 0 0 0 0
2266 2529 3003 2604 2287 2048 1804 643 1408 1548 1413 1032 816 453 140 0 0 0 0 0 0 0 0 0 0 0 0 0 0 0 0 0 0 0 0 0 0 0 0 0 0 0 0
2414 2524 2833 2693 2351 1889 1584 831 1058 1198 1154 871 465 160 0 0 0 0 0 0 0 0 0 0 0 0 0 0 0 0 0 0 0 0 0 0 0 0 0 0 0 0 0
2711 2482 2925 2544 2257 1857 1271 729 621 750 667 447 105 0 0 0 0 0 0 0 0 0 0 0 0 0 0 0 0 0 0 0 0 0 0 0 0 0 0 0 0 0 0
2537 2852 3019 2615 2474 1442 506 247 14 256 230 104 0 0 0 0 0 0 0 0 0 0 0 0 0 0 0 0 0 0 0 0 0 0 0 0 0 0 0 0 0 0 0
3045 3161 2609 2118 1711 856 321 191 64 48 11 0 0 0 0 0 0 0 0 0 0 0 0 0 0 0 0 0 0 0 0 0 0 0 0 0 0 0 0 0 0 0 0
2956 2392 1984 1510 1066 506 191 104 17 0 0 0 0 0 0 0 0 0 0 0 0 0 0 0 0 0 0 0 0 0 0 0 0 0 0 0 0 0 0 0 0 0 0
2274 1625 1435 1107 754 410 117 0 1 0 0 0 0 0 0 0 0 0 0 0 0 0 0 0 0 0 0 0 0 0 0 0 0 0 0 0 0 0 0 0 0 0 0
1720 1723 1141 1028 592 296 66 18 4 0 0 0 0 0 0 0 0 0 0 0 0 0 0 0 0 0 0 0 0 0 0 0 0 0 0 0 0 4 0 0 0 0 0
1408 1657 1034 982 655 251 153 111 1 0 0 0 0 0 0 0 0 0 0 0 0 0 0 0 0 0 0 0 0 0 0 0 0 0 0 2 1 0 9 9 2 0 0
1644 1543 1160 873 523 291 181 1 0 0 0 0 0 0 0 0 0 0 0 0 0 0 0 0 0 0 0 0 0 0 0 0 0 0 0 13 0 2 3 0 0 0 4
1643 1525 1130 652 493 287 80 1 0 0 0 0 0 0 0 0 0 0 0 0 0 0 0 0 0 0 0 0 0 0 0 0 0 0 29 15 17 2 0 0 12 23 29
1304 1467 1011 616 256 85 44 0 0 0 0 0 0 0 0 0 0 0 0 0 0 0 0 0 0 0 0 2 0 1 11 17 11 11 0 0 0 0 0 1 12 25 18
1361 1195 843 374 143 79 102 1 0 0 0 0 0 0 0 0 0 0 0 0 0 0 0 0 0 0 1 28 38 50 18 0 0 0 0 0 0 1 0 4 19 12 13
997 808 450 210 313 130 8 0 0 0 0 0 0 0 0 0 0 0 0 0 0 0 0 0 0 4 39 67 76 3 0 0 0 0 0 0 0 0 0 0 9 8 12
671 606 401 507 199 9 0 0 0 0 0 0 0 0 0 0 0 0 0 0 0 0 0 0 0 35 73 29 0 0 0 0 0 0 0 0 0 0 2 7 5 4 9
840 546 177 76 9 0 0 0 0 0 0 0 0 0 0 0 0 0 0 0 0 0 0 0 8 76 26 0 0 0 0 0 0 0 0 0 1 0 0 0 1 0 0
121 28 13 9 0 0 0 0 0 0 0 0 0 0 0 0 0 0 0 0 0 0 4 2 28 37 0 0 0 0 0 0 0 0 0 0 0 0 0 0 0 4 3
39 1 3 0 0 0 0 0 0 0 0 0 0 0 0 0 0 0 0 0 0 0 0 13 0 0 0 0 0 0 0 0 0 0 0 0 0 0 0 0 0 0 1
0 0 0 0 0 0 0 0 0 0 0 0 0 0 0 0 2 2 7 23 10 66 66 24 0 0 0 0 0 0 0 0 0 0 0 0 0 0 0 0 0 0 0
0 0 0 0 0 0 0 0 0 0 0 0 8 0 0 0 0 3 1 3 11 33 28 0 0 0 0 0 0 0 0 0 0 0 0 0 0 0 0 0 0 0 0
0 0 0 0 0 0 0 0 0 0 0 3 12 2 0 0 5 12 12 13 11 22 0 0 0 0 0 0 0 0 0 0 0 0 0 0 0 0 0 0 0 0 0
0 0 0 0 0 0 0 0 0 0 0 0 0 8 5 8 19 15 3 7 3 6 0 0 0 0 0 0 0 0 0 0 0 0 0 0 0 0 0 0 0 0 0
0 0 0 0 0 0 0 0 1 3 1 0 0 5 22 24 19 36 42 42 72 13 0 0 0 0 0 0 0 0 0 0 0 0 0 0 0 0 0 0 0 0 2
0 0 0 0 0 0 0 1 0 15 21 20 18 17 25 9 6 18 20 56 32 33 0 0 0 0 0 0 0 0 0 0 0 0 0 0 0 0 0 0 0 0 5
CIN
-36 -38 -18 -7 -6 -13 -15 -64 -34 -15 -12 -6 -17 -8 -8 -23 -45 -23 -0 -0 -0 -0 -0 -0 -0 -0 -0 -0 -0 -0 -0 -0 -0 -0 -0 -0 -0 -2 -0 -0 -0 -0 -0
-62 -42 -14 -15 -13 -22 -10 -89 -19 -5 -3 -17 -12 -17 -62 -57 -0 -0 -0 -0 -0 -0 -0 -0 -0 -0 -0 -0 -0 -0 -0 -0 -0 -0 -0 -0 -0 -0 -0 -0 -0 -0 -0
-68 -45 -21 -17 -20 -11 -8 -75 -1 -3 -3 -11 -26 -40 -93 -0 -0 -0 -0 -0 -0 -0 -0 -0 -0 -0 -0 -0 -0 -0 -0 -0 -0 -0 -0 -0 -0 -0 -0 -0 -0 -0 -0
-51 -27 -24 -44 -24 -20 -6 -22 -3 -6 -3 -10 -51 -128 -0 -0 -0 -0 -0 -0 -0 -0 -0 -0 -0 -0 -0 -0 -0 -0 -0 -0 -0 -0 -0 -0 -0 -0 -0 -0 -0 -0 -0
-26 -33 -13 -19 -14 -9 -5 -14 -8 -4 -11 -41 -139 -0 -0 -0 -0 -0 -0 -0 -0 -0 -0 -0 -0 -0 -0 -0 -0 -0 -0 -0 -0 -0 -0 -0 -0 -0 -0 -0 -0 -0 -0
-32 -8 -3 -4 -4 -28 -62 -59 -1 -8 -13 -123 -0 -0 -0 -0 -0 -0 -0 -0 -0 -0 -0 -0 -0 -0 -0 -0 -0 -0 -0 -0 -0 -0 -0 -0 -0 -0 -0 -0 -0 -0 -0
-8 -5 -11 -35 -48 -88 -90 -109 -146 -81 -58 -0 -0 -0 -0 -0 -0 -0 -0 -0 -0 -0 -0 -0 -0 -0 -0 -0 -0 -0 -0 -0 -0 -0 -0 -0 -0 -0 -0 -0 -0 -0 -0
-17 -44 -59 -79 -76 -121 -146 -120 -35 -0 -0 -0 -0 -0 -0 -0 -0 -0 -0 -0 -0 -0 -0 -0 -0 -0 -0 -0 -0 -0 -0 -0 -0 -0 -0 -0 -0 -0 -0 -0 -0 -0 -0
-57 -101 -99 -99 -111 -139 -201 -21 -0 -0 -0 -0 -0 -0 -0 -0 -0 -0 -0 -0 -0 -0 -0 -0 -0 -0 -0 -0 -0 -0 -0 -0 -0 -0 -0 -0 -0 -0 -0 -0 -0 -0 -0
-98 -74 -111 -89 -139 -154 -234 -225 -138 -0 -0 -0 -0 -0 -0 -0 -0 -0 -0 -0 -0 -0 -0 -0 -0 -0 -0 -0 -0 -0 -0 -0 -0 -0 -0 -0 -0 -51 -0 -0 -0 -0 -0
-115 -49 -99 -82 -103 -166 -123 -100 -1 -0 -0 -0 -0 -0 -0 -0 -0 -0 -0 -0 -0 -0 -0 -1 -0 -0 -0 -0 -0 -0 -0 -0 -0 -0 -0 -17 -2 -0 -5 -53 -12 -0 -0
-100 -45 -70 -84 -95 -116 -104 -14 -0 -0 -0 -0 -0 -0 -0 -0 -0 -0 -0 -0 -0 -0 -0 -0 -0 -0 -0 -0 -0 -0 -0 -0 -0 -0 -0 -4 -0 -3 -4 -0 -0 -0 -18
-84 -54 -50 -107 -136 -94 -122 -13 -0 -0 -0 -0 -0 -0 -0 -0 -0 -0 -0 -0 -0 -0 -0 -0 -0 -0 -0 -0 -0 -0 -0 -0 -0 -0 -14 -4 -2 -0 -0 -0 -3 -5 -5
-118 -59 -104 -73 -134 -158 -165 -0 -0 -0 -0 -0 -0 -0 -0 -0 -0 -0 -0 -0 -0 -0 -0 -0 -0 -0 -0 -30 -0 -5 -30 -41 -37 -9 -0 -0 -0 -0 -0 -0 -4 -3 -2
-91 -55 -72 -129 -146 -153 -78 -6 -0 -0 -0 -0 -0 -0 -0 -0 -0 -0 -0 -0 -0 -0 -0 -0 -0 -0 -7 -11 -10 -11 -6 -0 -0 -0 -0 -0 -0 -1 -1 -3 -4 -4 -4
-39 -61 -99 -118 -39 -86 -381 -0 -0 -0 -0 -0 -0 -0 -0 -0 -0 -0 -0 -0 -0 -0 -0 -0 -0 -34 -11 -7 -6 -4 -0 -0 -0 -0 -0 -0 -0 -0 -0 -1 -5 -3 -2
-49 -36 -37 -6 -25 -81 -4 -0 -0 -0 -0 -0 -0 -0 -0 -0 -0 -0 -0 -0 -0 -0 -0 -0 -0 -19 -7 -11 -0 -0 -0 -0 -0 -0 -0 -0 -0 -0 -1 -1 -3 -4 -3
-17 -35 -49 -66 -64 -0 -0 -0 -0 -0 -0 -0 -0 -0 -0 -0 -0 -0 -0 -0 -0 -0 -0 -28 -34 -6 -13 -0 -0 -0 -0 -0 -0 -0 -0 -0 -1 -0 -0 -0 -3 -0 -0
-121 -117 -106 -99 -0 -0 -0 -0 -0 -0 -0 -0 -0 -0 -0 -0 -0 -0 -0 -0 -0 -0 -28 -23 -11 -10 -0 -0 -0 -0 -0 -0 -0 -0 -0 -0 -0 -0 -0 -0 -0 -0 -1
-142 -38 -142 -0 -0 -0 -0 -0 -0 -0 -0 -0 -0 -0 -0 -0 -0 -0 -0 -0 -0 -0 -0 -24 -8 -0 -0 -0 -0 -0 -0 -0 -0 -0 -0 -0 -0 -0 -0 -0 -0 -0 -1
-0 -0 -0 -0 -0 -0 -0 -0 -0 -0 -0 -0 -0 -0 -0 -0 -25 -2 -9 -17 -34 -13 -14 -8 -0 -0 -0 -0 -0 -0 -0 -0 -0 -0 -0 -0 -0 -0 -0 -0 -0 -0 -0
-0 -0 -0 -0 -0 -0 -0 -0 -0 -0 -0 -0 -11 -0 -0 -0 -11 -14 -4 -19 -25 -8 -8 -0 -0 -0 -0 -0 -0 -0 -0 -0 -0 -0 -0 -0 -0 -0 -0 -0 -0 -0 -0
-0 -0 -0 -0 -0 -0 -0 -0 -0 -0 -0 -4 -8 -12 -0 -1 -15 -21 -25 -51 -36 -16 -1 -0 -0 -0 -0 -0 -0 -0 -0 -0 -0 -0 -0 -0 -0 -0 -0 -0 -0 -0 -0
-0 -0 -0 -0 -0 -0 -0 -0 -0 -0 -0 -0 -0 -20 -32 -13 -13 -23 -31 -22 -9 -12 -0 -0 -0 -0 -0 -0 -0 -0 -0 -0 -0 -0 -0 -0 -0 -0 -0 -0 -0 -0 -6
-0 -0 -0 -0 -0 -0 -0 -0 -0 -1 -1 -1 -0 -6 -10 -17 -20 -18 -9 -10 -4 -12 -1 -0 -0 -0 -0 -0 -0 -0 -0 -0 -0 -0 -0 -0 -0 -0 -0 -0 -0 -0 -29
-0 -0 -0 -0 -0 -0 -0 -1 -0 -3 -2 -6 -7 -6 -6 -17 -18 -17 -16 -16 -13 -8 -0 -0 -0 -0 -0 -0 -0 -0 -0 -0 -0 -0 -0 -0 -0 -0 -0 -0 -0 -0 -9
Wind_Speed
14 14 12 8 6 6 6 7 8 9 11 13 15 16 19 21 22 23 23 23 23 23 24 25 25 26 26 26 26 26 26 26 27 28 28 28 29 26 27 27 28 27 28
13 13 8 6 4 3 4 4 5 7 9 11 13 15 19 21 21 23 22 23 23 23 23 24 25 26 26 27 27 26 27 26 26 28 27 29 26 28 29 30 30 29 30
12 11 7 6 7 8 6 3 3 4 7 8 11 14 19 20 21 21 21 22 22 22 22 24 24 25 26 26 27 27 28 27 27 26 27 27 27 30 31 29 31 30 30
12 9 4 7 5 8 6 3 2 3 5 7 10 13 16 19 21 21 21 21 21 21 21 23 24 25 26 27 27 27 28 28 29 28 28 29 29 32 30 31 31 30 31
11 10 6 8 6 6 3 3 2 6 6 7 9 12 15 19 20 20 20 20 20 21 21 21 24 23 23 25 27 27 28 29 30 29 29 30 30 32 32 32 31 31 31
9 8 6 5 7 9 10 15 5 10 7 7 10 13 16 19 18 18 18 18 20 21 21 20 23 27 27 25 27 26 25 28 29 30 30 31 31 31 32 33 32 32 31
10 9 9 8 7 9 9 11 11 12 13 11 12 15 17 16 16 19 17 18 19 20 21 22 23 26 28 28 29 30 27 25 26 30 30 29 30 31 31 33 33 33 33
7 7 7 8 9 9 10 11 14 14 12 12 13 15 15 15 16 18 19 18 19 20 20 21 22 24 27 29 30 30 31 30 29 32 28 29 29 29 28 31 34 34 33
7 6 6 8 9 9 9 11 11 11 11 12 13 14 14 14 15 17 19 17 18 17 18 19 20 22 25 28 30 31 31 30 30 33 31 32 32 26 24 28 30 34 36
6 6 7 8 8 8 9 9 10 10 10 11 12 14 13 13 14 16 19 21 16 17 14 16 16 22 25 28 30 30 31 32 34 36 32 33 33 26 21 21 25 33 37
6 7 7 7 6 6 7 8 8 9 10 11 12 12 12 12 13 15 19 22 22 24 26 25 19 22 27 29 28 27 27 29 33 33 32 31 32 33 28 21 22 32 35
6 6 7 8 8 7 6 6 7 8 9 10 11 11 11 12 13 15 17 19 20 22 23 23 25 25 27 29 29 27 26 28 30 31 33 33 36 32 29 30 33 33 29
5 6 6 7 8 8 7 6 6 8 8 9 9 10 11 11 13 14 14 15 16 20 21 24 25 27 28 29 27 26 26 28 28 31 33 37 35 34 35 34 30 28 30
4 4 4 5 7 7 7 6 6 6 7 8 9 9 10 11 10 11 12 14 16 17 19 22 25 24 25 26 29 31 27 24 27 33 38 36 38 40 36 33 34 33 33
3 4 5 4 5 6 4 5 5 8 6 7 8 9 10 11 17 13 13 17 19 18 22 24 25 25 27 30 31 30 30 33 35 35 37 39 37 36 36 36 36 35 36
4 4 4 5 4 5 4 9 11 10 12 13 15 14 18 15 15 16 17 17 16 18 20 21 22 20 20 25 27 31 34 36 35 37 37 37 37 38 37 34 33 32 34
3 5 5 4 4 4 5 6 7 10 13 12 13 15 15 14 14 14 14 15 15 16 16 15 14 17 21 26 30 34 36 36 37 37 37 39 36 34 33 33 33 33 33
4 5 7 7 6 6 5 6 6 9 10 10 12 12 11 10 10 11 13 14 15 15 15 13 12 18 25 28 33 35 35 36 36 36 36 34 34 35 35 35 35 35 36
5 5 5 5 6 6 7 6 7 8 7 8 8 7 7 9 10 11 12 11 12 13 18 23 24 26 29 32 33 32 32 33 34 34 34 34 35 36 36 36 35 32 30
6 8 7 7 6 7 7 8 8 8 10 12 8 6 7 9 11 9 8 9 11 13 15 16 19 23 30 29 29 31 31 31 31 31 32 34 35 34 33 35 34 35 32
5 7 8 8 5 5 7 6 7 10 9 7 8 11 8 9 11 15 21 12 14 14 16 19 24 27 28 29 29 30 29 29 28 30 32 33 32 32 30 31 32 19 19
8 8 8 8 6 5 6 8 8 8 8 8 10 9 8 10 13 13 16 19 21 23 18 24 26 26 26 28 29 27 27 25 28 29 29 28 24 20 19 12 8 5 6
8 7 6 5 7 7 8 7 7 8 8 9 11 9 8 11 15 17 19 19 22 15 22 24 25 25 25 26 25 23 25 25 27 28 27 23 18 11 7 5 5 6 8
7 7 6 6 7 7 6 7 7 9 12 13 14 12 9 11 14 18 18 20 17 18 22 24 23 22 22 24 23 22 23 25 28 27 22 13 11 7 5 5 5 6 9
6 6 6 6 7 6 6 6 5 8 9 10 10 13 14 14 16 16 19 18 17 20 22 21 20 19 21 21 22 21 21 23 24 22 18 14 9 7 6 7 7 11 11
5 6 5 5 6 7 5 7 7 8 9 10 12 13 14 16 16 17 18 17 19 19 21 19 18 19 21 21 22 22 22 24 24 20 18 15 14 12 11 11 10 13 18
Wind_Direction
140 138 129 115 100 72 60 51 62 53 47 36 32 37 25 22 17 8 3 4 360 358 354 351 352 350 347 352 350 354 351 351 342 341 345 343 341 349 343 338 331 327 330
140 141 126 115 103 12 8 25 23 28 30 31 39 30 22 16 18 15 12 7 7 3 4 2 354 350 348 350 349 349 350 345 348 342 344 343 352 344 337 331 330 325 320
144 143 128 126 124 136 130 104 83 50 14 21 24 17 14 17 17 18 15 12 14 11 10 7 7 359 352 347 348 346 345 345 347 349 345 346 344 342 338 336 329 326 323
144 137 101 126 117 144 137 126 129 78 26 8 1 10 14 16 15 15 19 18 14 13 19 14 10 5 1 355 357 355 352 349 347 345 345 344 344 337 338 335 333 332 327
133 137 122 126 112 131 84 94 86 55 356 15 358 8 13 10 12 11 23 21 21 20 18 19 12 12 11 5 0 357 353 352 351 345 342 340 339 336 336 332 331 331 330
131 134 108 78 67 29 42 37 79 41 36 10 353 358 5 7 12 18 27 27 20 16 14 19 16 4 359 360 354 356 357 353 350 345 341 338 337 337 336 333 331 332 331
122 103 90 67 64 56 57 63 55 81 86 36 12 7 10 24 27 19 30 28 23 19 12 3 2 1 358 355 346 345 351 350 348 342 339 337 336 339 336 334 330 329 327
89 82 78 65 66 66 69 57 78 88 73 56 36 29 29 31 26 17 16 21 16 13 10 9 6 3 359 355 350 346 343 340 342 338 336 333 332 332 335 334 328 329 328
85 80 69 79 75 82 71 77 79 79 67 50 42 32 28 34 32 22 12 22 16 14 13 10 7 2 0 355 350 347 345 342 341 336 332 329 327 327 331 331 330 327 326
84 68 71 74 63 75 78 84 85 76 67 53 48 32 35 35 29 18 7 0 7 5 4 2 2 358 355 350 346 344 342 342 341 337 334 334 333 334 330 329 331 328 328
78 65 68 62 50 65 79 71 72 73 67 52 37 34 31 30 26 14 4 1 359 355 352 356 2 354 347 346 346 345 343 344 341 340 336 336 340 335 334 334 330 325 322
70 64 60 67 67 79 68 57 59 62 52 39 34 34 31 29 23 10 4 2 0 358 354 353 352 349 346 343 342 340 340 340 340 338 335 333 332 332 333 330 325 323 323
73 76 56 76 86 92 83 69 46 51 43 32 23 19 24 23 14 8 7 6 3 356 357 352 349 346 344 345 346 345 340 338 338 336 333 332 333 333 331 330 330 330 328
90 60 59 57 76 90 85 70 49 52 35 21 15 10 8 7 11 12 8 6 3 2 2 357 351 350 349 350 348 344 345 344 341 335 332 333 331 329 330 331 328 327 326
87 51 77 75 90 102 26 15 36 6 38 21 22 15 6 8 4 13 14 12 3 4 357 356 356 353 349 345 346 347 350 346 341 339 336 333 333 333 331 329 328 325 323
76 79 79 90 85 84 10 339 351 4 7 8 4 13 10 16 12 7 4 3 5 2 1 359 359 2 2 359 355 350 347 344 342 339 337 336 334 332 331 332 331 330 327
53 81 80 79 61 45 59 30 6 1 359 2 9 5 7 9 9 8 7 5 5 4 1 4 6 6 3 359 354 348 344 343 341 340 338 334 336 337 337 336 335 332 329
47 95 85 90 85 59 49 53 40 5 360 1 357 1 14 20 20 17 14 10 6 7 7 7 10 7 2 358 351 348 346 344 343 342 341 341 341 339 337 335 333 330 327
56 64 78 57 85 85 73 68 39 30 29 24 33 48 50 38 32 23 15 11 8 8 7 357 0 359 357 353 351 351 351 349 347 346 345 344 342 339 336 334 333 338 337
79 104 83 73 32 30 28 20 19 24 14 6 18 31 50 35 20 17 10 7 13 1 1 4 7 2 356 356 356 354 353 351 351 350 349 347 345 344 342 335 334 332 339
59 28 70 69 71 68 20 23 23 16 26 41 41 36 72 41 21 12 11 16 2 9 6 12 3 359 359 358 357 356 356 356 356 355 351 350 351 348 350 345 336 358 357
66 68 60 74 66 46 39 33 23 30 29 28 29 54 60 21 13 13 8 8 4 360 6 360 359 1 2 1 359 360 359 1 358 356 355 356 359 1 2 6 5 326 306
68 79 59 56 49 45 32 36 40 33 37 27 24 40 33 23 16 17 14 5 359 5 360 359 359 1 3 4 4 6 4 3 360 358 357 0 2 1 358 337 355 356 4
82 70 70 67 62 47 51 32 26 24 6 9 14 24 26 26 26 10 7 7 2 5 2 359 360 1 7 7 9 11 10 4 0 1 4 3 1 351 342 349 4 360 360
63 49 76 77 46 51 46 49 48 26 35 34 28 14 16 13 7 10 5 6 6 2 1 4 5 7 6 7 10 13 12 8 7 8 9 9 1 354 3 10 7 8 1
77 76 90 84 64 44 36 32 30 20 19 22 25 22 21 13 7 5 3 8 7 6 5 6 9 7 7 8 12 11 10 7 8 12 12 12 14 17 16 9 1 4 6